DW4063 Weather Reports


Display with metric or nautical units.
time (UTC)temp
F
wind
direction
speed
MPH
gust
MPH
rain 1hr
in
rain 24hr
in
rain mn
in
humidity
%
barometer
mb
20260904004534 82 238 0.0 0.0 0.00 0.00 0.00 82 1013.1
20260904003032 83 238 0.0 0.0 0.00 0.00 0.00 80 1012.9
20260904001523 84 238 0.0 0.0 0.00 0.00 0.00 78 1013.0
20260904000101 86 238 0.0 0.0 0.00 0.00 0.00 76 1013.1
20260903234516 87 238 0.0 0.0 0.00 0.00 0.00 72 1013.2
20260903233035 89 238 0.0 1.0 0.00 0.00 0.00 69 1013.2
20260903231532 91 235 0.0 2.0 0.00 0.00 0.00 65 1013.3
20260903230034 92 233 0.0 7.0 0.00 0.00 0.00 56 1013.4
20260903224538 93 271 0.0 4.0 0.00 0.00 0.00 55 1013.5
20260903223023 93 215 0.0 4.0 0.00 0.00 0.00 56 1013.4
20260903221519 94 213 0.0 1.0 0.00 0.00 0.00 62 1013.7
20260903220036 95 213 0.0 1.0 0.00 0.00 0.00 55 1013.6
20260903214537 95 30 0.0 3.0 0.00 0.00 0.00 53 1013.7
20260903213036 95 227 0.0 4.0 0.00 0.00 0.00 55 1013.6
20260903211537 96 297 0.0 2.0 0.00 0.00 0.00 54 1013.7
20260903210028 95 207 0.0 4.0 0.00 0.00 0.00 56 1013.7
20260903204523 93 56 0.0 2.0 0.00 0.00 0.00 60 1013.7
20260903203041 93 199 0.0 3.0 0.00 0.00 0.00 59 1013.9
20260903201534 92 217 0.0 3.0 0.00 0.00 0.00 61 1014.1
20260903200034 91 147 0.0 3.0 0.00 0.00 0.00 62 1014.3
20260903194544 89 178 0.0 2.0 0.00 0.00 0.00 66 1014.4
20260903193031 88 213 0.0 3.0 0.00 0.00 0.00 68 1014.6
20260903191538 87 88 0.0 3.0 0.00 0.00 0.00 68 1014.7
20260903190052 86 73 1.0 2.0 0.00 0.00 0.00 67 1014.9
20260903184532 85 101 0.0 2.0 0.00 0.00 0.00 72 1015.1
20260903183034 84 140 0.0 3.0 0.00 0.00 0.00 71 1015.3
20260903181542 83 99 0.0 2.0 0.00 0.00 0.00 75 1015.4
20260903180027 83 355 0.0 1.0 0.00 0.00 0.00 74 1015.7
20260903174537 84 284 0.0 3.0 0.00 0.00 0.00 73 1015.8
20260903173035 84 200 1.0 4.0 0.00 0.00 0.00 72 1015.9
20260903171531 84 238 1.0 4.0 0.00 0.00 0.00 71 1016.2
20260903170014 84 184 0.0 8.0 0.00 0.00 0.00 72 1016.2
20260903164510 84 115 0.0 4.0 0.00 0.00 0.00 72 1016.0
20260903163035 85 233 1.0 4.0 0.00 0.00 0.00 74 1016.2
20260903161531 85 290 0.0 6.0 0.00 0.00 0.00 70 1016.0
20260903160026 86 329 1.0 4.0 0.00 0.00 0.00 71 1015.6
20260903154522 87 220 0.0 3.0 0.00 0.00 0.00 68 1015.0
20260903153017 86 246 0.0 3.0 0.00 0.00 0.00 68 1014.8
20260903151512 85 297 0.0 3.0 0.00 0.00 0.00 71 1014.7
20260903150042 84 209 0.0 2.0 0.00 0.00 0.00 74 1014.8
20260903144534 84 211 1.0 3.0 0.00 0.00 0.00 74 1014.7
20260903143036 83 192 0.0 2.0 0.00 0.00 0.00 76 1014.9
20260903141529 82 221 0.0 3.0 0.00 0.00 0.00 78 1014.8
20260903140023 81 262 0.0 2.0 0.00 0.00 0.00 80 1014.7
20260903134517 79 252 0.0 4.0 0.00 0.00 0.00 83 1014.7
20260903133036 78 241 0.0 4.0 0.00 0.00 0.00 87 1014.8
20260903131533 76 242 0.0 1.0 0.00 0.00 0.00 90 1014.9
20260903130032 75 191 0.0 1.0 0.00 0.00 0.00 93 1014.9
20260903124529 74 219 0.0 2.0 0.00 0.00 0.00 94 1014.9
20260903123028 74 227 0.0 0.0 0.00 0.00 0.00 94 1015.0
20260903121532 74 227 0.0 0.0 0.00 0.00 0.00 94 1015.0
20260903120039 73 227 0.0 0.0 0.00 0.00 0.00 94 1015.0
20260903114532 73 227 0.0 0.0 0.00 0.00 0.00 94 1014.9
20260903113032 74 227 0.0 0.0 0.00 0.00 0.00 93 1014.8
20260903111527 74 227 0.0 0.0 0.00 0.00 0.00 94 1014.7
20260903110027 74 227 0.0 0.0 0.00 0.00 0.00 94 1014.8
20260903104537 74 227 0.0 0.0 0.00 0.00 0.00 94 1014.8
20260903103040 74 227 0.0 0.0 0.00 0.00 0.00 94 1014.7
20260903101541 74 227 0.0 0.0 0.00 0.00 0.00 94 1014.7
20260903100037 74 227 0.0 0.0 0.00 0.00 0.00 94 1014.6
20260903094531 74 227 0.0 1.0 0.00 0.00 0.00 94 1014.6
20260903093055 74 300 0.0 0.0 0.00 0.00 0.00 93 1014.5
20260903091536 74 300 0.0 0.0 0.00 0.00 0.00 94 1014.5
20260903090041 75 300 0.0 0.0 0.00 0.00 0.00 94 1014.5
20260903084535 75 300 0.0 0.0 0.00 0.00 0.00 94 1014.4
20260903083035 75 300 0.0 0.0 0.00 0.00 0.00 93 1014.4
20260903081511 75 300 0.0 0.0 0.00 0.00 0.00 93 1014.5
20260903080029 75 300 0.0 0.0 0.00 0.00 0.00 93 1014.4
20260903074528 75 300 0.0 0.0 0.00 0.00 0.00 93 1014.4
20260903073024 75 300 0.0 0.0 0.00 0.00 0.00 93 1014.4
20260903071519 75 300 0.0 0.0 0.00 0.00 0.00 93 1014.4
20260903070013 75 300 0.0 0.0 0.00 0.00 0.00 92 1014.5
20260903064532 76 300 0.0 0.0 0.00 0.00 0.00 92 1014.5
20260903063030 76 300 0.0 0.0 0.00 0.00 0.00 92 1014.5
20260903061532 76 300 0.0 0.0 0.00 0.00 0.00 92 1014.5
20260903060029 76 300 0.0 0.0 0.00 0.00 0.00 92 1014.6
20260903054534 76 300 0.0 0.0 0.00 0.00 0.00 91 1014.7
20260903053017 77 300 0.0 0.0 0.00 0.00 0.00 91 1014.5
20260903051533 77 300 0.0 0.0 0.00 0.00 0.00 91 1014.5
20260903050039 77 300 0.0 0.0 0.00 0.00 0.00 90 1014.4
20260903044530 77 300 0.0 0.0 0.00 0.00 0.00 90 1014.3
20260903043034 78 300 0.0 0.0 0.00 0.00 0.00 89 1014.4
20260903041524 78 300 0.0 0.0 0.00 0.00 0.00 89 1014.3
20260903040017 79 300 0.0 0.0 0.00 0.00 0.00 88 1014.4
20260903034531 79 300 0.0 0.0 0.00 0.00 0.00 87 1014.3
20260903033034 80 300 0.0 0.0 0.00 0.00 0.00 86 1014.2
20260903031531 80 300 0.0 0.0 0.00 0.00 0.00 85 1014.1
20260903030030 81 232 0.0 0.0 0.00 0.00 0.00 84 1014.2
20260903024527 82 232 0.0 0.0 0.00 0.00 0.00 82 1014.2
20260903023034 83 232 0.0 0.0 0.00 0.00 0.00 80 1014.1
20260903021534 84 232 0.0 2.0 0.00 0.00 0.00 77 1014.0
20260903020036 85 254 0.0 2.0 0.00 0.00 0.00 76 1013.9
20260903014533 86 245 0.0 2.0 0.00 0.00 0.00 74 1013.9
20260903013032 86 213 0.0 3.0 0.00 0.00 0.00 72 1013.7
20260903011528 87 236 0.0 2.0 0.00 0.00 0.00 72 1013.5
20260903010028 87 209 0.0 3.0 0.00 0.00 0.00 71 1013.4